{"data":{"norad_id":62413,"epoch":"2026-05-25T04:18:04.184640Z","epoch_age_seconds":66342,"freshness":"FRESH","line1":"1 62413U 24249E   26145.17921510  .00248734  00000+0  18778-2 0  9991","line2":"2 62413  43.0008  66.3147 0002319 244.1403 115.9225 15.70924093 81513","mean_motion":15.70924093,"eccentricity":0.0002319,"inclination_deg":43.0008,"raan_deg":66.3147,"arg_perigee_deg":244.1403,"mean_anomaly_deg":115.9225,"bstar":0.0018778,"rev_number":8151,"period_min":91.665791263665,"perigee_km":354.69301331873,"apogee_km":357.81642419789,"semimajor_km":6734.3917187583,"source":"CELESTRAK","updated_at":"2026-05-25T13:38:19.652849Z"}}